Cloud_Cover
0 0 0 0 0 0 1 12 0 1 4 2 4 15 62 100 43 100 100 28 100 90 25 38 94 79 100 98 98 100 100 100 97 1 5 5 4 12 99 100 97 100 83 7 5 30 27 98 88
0 0 0 0 0 0 0 0 0 0 0 0 0 5 29 81 97 73 100 28 62 100 61 13 51 100 100 100 51 72 100 100 100 5 5 5 5 50 97 26 98 100 15 5 9 38 9 76 100
0 0 0 0 0 0 0 0 0 0 0 0 1 4 69 3 64 99 95 8 0 90 100 90 21 86 84 100 100 100 100 88 100 11 5 0 0 1 13 33 41 38 79 5 5 43 31 43 100
0 0 0 0 0 0 0 0 0 0 0 0 44 3 0 0 93 34 100 100 12 1 95 100 100 100 100 74 100 100 63 100 100 100 12 0 0 0 0 3 5 5 48 5 25 7 69 26 81
0 0 0 0 0 0 0 0 0 0 0 0 0 79 0 26 26 0 0 27 61 20 3 93 100 83 74 26 16 100 100 94 100 100 100 61 6 5 0 0 0 5 5 5 45 6 18 10 36
0 0 0 0 0 0 0 0 0 0 0 2 0 0 0 9 63 16 12 4 31 76 41 6 100 100 99 69 5 90 31 22 98 99 100 100 75 25 5 5 5 22 17 26 5 11 5 5 45
0 0 0 0 0 0 0 0 0 0 0 1 5 2 0 23 19 5 4 4 0 6 57 96 84 62 10 100 27 12 89 100 70 8 100 100 100 88 12 5 5 5 21 5 5 5 12 74 43
0 0 0 0 0 0 0 0 0 0 0 0 0 2 0 0 0 0 0 0 0 0 0 1 48 97 66 5 66 100 24 5 94 11 7 14 98 100 61 5 5 5 5 5 5 5 12 40 85
0 0 0 0 0 0 0 0 0 0 0 0 0 0 0 0 0 0 0 0 0 0 0 0 0 0 65 5 12 3 17 87 5 4 6 5 5 42 100 90 11 5 5 4 5 5 28 28 35
0 0 0 0 0 0 0 0 0 0 0 0 0 0 0 0 0 0 0 0 4 45 80 56 0 1 0 3 50 6 3 8 5 5 4 5 6 28 81 60 100 100 38 5 5 5 12 54 6
0 0 0 0 0 0 0 0 0 0 0 0 0 0 0 0 0 0 0 0 5 39 68 84 41 3 0 0 4 28 4 38 84 70 38 5 2 5 45 20 80 52 74 44 5 5 10 6 62
0 0 0 0 0 0 0 0 0 0 0 0 0 0 0 0 0 0 0 0 0 0 3 49 40 0 0 0 0 0 99 74 47 8 4 66 10 5 7 79 100 100 90 93 69 28 5 23 70
0 0 0 0 0 0 0 0 0 0 0 0 0 0 0 0 0 0 0 0 0 0 0 0 2 0 1 0 0 0 93 58 87 100 39 0 2 12 22 86 100 100 100 100 100 86 5 46 88
0 0 0 0 0 0 0 0 0 0 0 0 0 0 0 0 0 0 0 0 0 0 0 0 0 0 0 0 0 0 1 96 7 100 100 0 4 24 52 53 50 100 100 100 85 43 8 5 5
0 0 0 0 0 0 0 0 0 0 0 0 0 0 0 0 0 0 0 0 0 0 0 0 0 0 0 0 0 0 0 4 54 36 100 100 26 4 97 100 87 94 100 93 75 95 48 5 14
0 0 0 0 0 0 0 0 0 0 0 0 0 0 0 0 0 0 0 0 0 0 0 0 0 0 0 0 0 0 4 86 49 100 24 100 54 7 46 69 93 100 67 6 13 7 19 7 5
0 0 0 0 0 0 0 0 0 0 0 0 0 0 0 0 0 0 0 0 0 0 0 0 0 0 0 0 0 0 8 43 46 20 81 100 77 19 31 12 3 46 74 80 83 100 86 98 21
0 0 0 0 0 0 0 0 0 0 0 0 0 0 0 0 0 0 0 0 0 0 0 0 0 0 0 0 0 0 0 0 0 2 97 0 48 14 12 9 81 91 68 78 85 95 100 100 57
0 0 0 0 0 0 0 0 0 0 0 0 0 0 0 0 0 0 0 0 0 0 0 0 0 0 0 0 0 3 0 2 3 24 64 0 84 0 0 10 5 10 76 49 100 100 100 91 100
0 0 0 0 0 0 0 0 0 0 0 0 0 0 0 0 0 0 0 0 0 0 0 0 0 0 0 0 0 3 3 19 6 4 0 0 0 0 11 1 0 4 5 5 90 60 100 100 99
0 0 0 0 0 0 0 0 0 0 0 0 0 0 0 0 0 0 0 0 0 0 0 0 0 0 0 0 0 0 0 0 4 2 1 0 0 0 0 0 0 10 0 0 0 16 96 100 100
3 1 0 0 0 0 0 0 0 1 0 0 0 0 0 0 0 0 0 0 0 0 0 0 0 0 0 0 0 0 0 2 32 6 71 52 0 0 0 0 0 0 0 7 0 0 3 100 100
0 0 0 3 5 0 1 0 5 4 0 0 0 2 0 0 0 0 0 0 0 0 0 0 0 0 0 0 0 0 0 4 2 5 5 0 0 0 0 0 0 0 0 0 0 10 2 0 38
4 4 5 5 5 0 2 4 0 2 4 0 0 0 0 0 0 0 0 0 0 0 0 0 0 0 0 0 0 0 0 0 4 6 0 0 0 0 0 0 0 0 0 0 0 0 0 0 1
5 25 14 27 100 3 83 81 3 49 5 4 4 0 0 0 0 0 0 0 0 0 0 0 0 0 0 0 0 0 0 0 0 0 0 0 0 0 0 0 0 0 0 0 0 0 0 0 0
33 100 100 100 100 100 100 48 15 67 15 9 42 3 4 5 1 3 0 2 0 0 0 0 0 0 0 0 0 0 0 0 0 0 0 0 0 0 0 0 0 0 0 0 0 0 0 0 0
80 89 92 100 92 100 24 55 100 100 27 89 78 33 5 5 5 5 5 5 4 0 0 0 0 0 0 0 0 0 0 0 0 0 0 0 0 0 0 0 0 0 0 0 0 0 0 0 0
81 63 100 100 88 75 6 100 100 100 100 86 64 100 95 19 14 9 5 5 3 0 0 0 0 0 0 0 0 0 0 0 0 0 0 0 0 0 0 0 0 0 0 0 0 0 0 0 0
100 100 100 100 57 100 74 48 100 100 97 100 65 55 100 100 42 74 7 4 4 0 0 0 0 0 0 0 0 0 0 0 0 0 0 0 0 0 0 0 0 0 0 0 0 0 0 0 0
100 100 100 100 16 100 46 1 26 99 83 100 100 100 99 99 100 100 88 89 5 5 0 0 0 0 0 0 0 0 0 0 0 0 0 0 0 0 0 0 0 0 0 0 0 0 0 0 2